Location: Demmingen
(48.6757°N, 10.4375°E)
Time: 05:53:21
(UTC+00:00)

SL-16 R/B - Pass Details

Date: 16 August 2024
Orbit: 842 x 845 km, 71.0° (Epoch: 16 September)

Event Time Altitude Azimuth Distance (km) Brightness Sun altitude
Exits shadow 21:34:17 37° 94° (E) 1,292 2.9 -23.5°
Drops below altitude 10° 21:38:55 10° 41° (NE) 2,474 4.9 -23.9°
Sets 21:41:31 0° 34° (NE) 3,414 5.7 -24.1°
